Presure
137 148 137 132 147 156 141 141 135 142 144 136 141 134 137 115 110 81 77 142 145 146 137 143 139 152 154 139 163 137 150 168 84 110 114 143 155 163 160 131 162 128 136
145 144 147 142 134 143 152 151 138 136 129 140 143 140 140 140 146 146 125 131 145 96 132 146 142 167 132 138 160 140 148 139 145 75 151 178 154 143 145 142 168 142 159
80 135 143 136 143 139 133 132 137 150 137 133 140 131 142 139 143 141 140 119 100 152 133 134 148 148 146 145 94 105 154 142 135 185 84 168 158 170 143 157 148 142 140
93 82 97 130 147 135 135 138 140 135 149 135 132 132 136 137 143 144 144 147 131 136 100 150 147 100 131 98 142 137 145 103 127 158 151 158 160 146 128 131 147 163 147
110 85 88 87 77 140 136 132 135 138 129 138 138 134 137 124 129 139 140 135 139 125 87 96 110 94 92 113 117 158 144 81 145 151 150 154 164 168 145 149 149 146 136
94 78 83 123 142 87 116 131 138 141 141 143 137 136 138 129 128 144 136 145 90 136 108 92 101 106 117 95 139 144 154 123 133 150 134 154 168 144 163 162 169 138 149
83 82 83 83 81 131 130 143 135 138 137 142 90 145 135 145 86 145 79 80 144 95 88 136 155 91 132 85 110 140 137 142 152 140 157 149 139 160 177 183 136 159 140
89 124 81 120 89 85 82 124 138 87 136 144 127 123 120 100 101 91 84 82 78 84 77 114 95 139 156 126 154 144 150 136 143 151 155 147 132 153 147 166 167 154 166
81 149 134 98 102 86 86 148 112 105 145 124 106 152 134 142 137 90 81 83 83 111 103 83 142 137 134 117 145 159 134 138 140 138 161 152 150 152 131 173 153 127 162
127 132 72 139 137 85 84 88 140 85 90 88 89 127 152 111 142 80 82 83 83 78 99 135 151 138 156 123 145 154 131 151 136 131 161 151 153 137 166 173 169 134 142
144 80 127 86 79 78 75 83 83 88 153 85 87 86 131 136 160 88 77 88 126 79 116 152 142 132 152 135 135 154 149 146 166 128 134 158 148 157 162 174 168 173 141
142 144 133 135 126 124 80 137 143 116 102 138 143 116 143 78 132 139 154 76 84 124 132 155 133 153 149 140 161 148 151 155 161 150 122 135 141 149 138 146 173 175 145
145 142 147 153 150 112 81 79 81 84 147 141 128 149 110 120 119 143 143 142 105 143 152 136 131 135 162 133 139 154 145 153 144 144 153 162 150 132 163 157 164 171 147
153 145 150 151 156 146 142 134 124 135 151 141 87 144 150 131 132 138 151 86 160 143 139 139 140 157 147 168 141 138 154 160 147 140 145 162 159 157 164 165 173 172 141
165 153 152 151 153 156 148 142 150 142 149 159 113 144 129 132 154 134 148 154 129 150 147 146 134 147 152 145 141 132 152 158 139 153 137 166 155 146 168 175 165 169 183
174 167 161 153 154 151 150 145 157 148 150 145 150 145 146 137 144 141 150 148 154 148 138 157 128 135 152 144 139 152 150 158 137 158 161 153 142 166 171 164 140 172 183
158 199 172 166 155 148 153 146 150 152 149 139 131 145 151 157 142 144 154 144 118 153 143 155 134 129 141 166 162 148 156 153 135 155 165 161 153 159 168 160 188 185 167
179 152 204 198 170 161 162 154 152 152 145 151 152 134 151 144 133 141 139 159 154 141 153 146 123 141 157 144 158 149 167 152 135 149 157 156 145 164 167 173 174 179 183
175 178 156 197 195 182 160 162 161 154 154 151 150 149 145 150 140 124 146 151 154 145 152 154 156 152 151 137 161 137 158 144 144 156 162 137 157 170 176 184 178 182 152
193 197 180 166 199 195 186 165 162 161 160 158 163 152 156 150 150 156 150 152 151 126 137 155 141 149 158 146 150 149 155 162 140 151 152 179 143 127 187 185 172 174 185
183 178 179 179 191 171 196 191 179 167 164 159 166 148 161 134 151 129 147 144 141 147 154 160 157 150 141 144 145 151 144 149 135 154 137 146 144 174 183 144 138 180 187
173 180 169 178 176 189 173 158 189 184 179 178 168 158 134 152 123 151 139 135 146 124 142 161 151 134 169 148 153 162 141 154 131 146 166 124 179 175 112 127 140 144 129
189 189 186 189 186 177 194 178 158 182 183 180 175 175 157 169 145 147 148 146 127 151 137 157 168 171 126 159 160 121 157 158 157 127 180 129 163 113 176 171 156 142 177
184 180 181 180 179 194 183 186 172 164 188 189 181 177 175 170 162 143 152 139 139 139 168 160 124 150 159 161 150 132 153 163 165 182 164 156 175 177 150 141 134 173 181
197 173 178 184 180 182 170 192 180 157 173 169 186 189 179 172 172 132 156 162 151 142 118 156 122 158 149 136 165 128 168 145 167 154 130 177 172 124 166 182 191 141 186
218 143 197 174 163 183 190 195 194 163 173 161 167 169 182 189 179 164 166 161 151 151 120 148 163 161 141 160 174 123 152 142 154 167 181 173 158 120 112 188 189 181 172
Wind_Speed
66 69 68 62 62 63 57 59 54 55 54 49 50 44 46 32 29 15 12 27 31 28 17 20 14 38 34 25 38 25 28 49 34 38 42 39 33 34 31 34 32 38 33
74 70 68 67 60 58 58 61 57 57 48 53 54 52 49 49 50 44 32 26 37 29 18 35 31 43 25 23 41 29 32 40 36 38 33 51 36 37 38 39 41 37 38
40 70 70 66 63 62 58 57 60 62 60 51 55 46 53 53 52 44 38 34 31 45 22 19 38 35 26 28 32 41 38 30 42 52 42 50 44 47 43 42 44 46 47
52 44 49 63 69 64 62 63 65 62 65 58 54 52 56 55 57 54 48 44 28 28 27 44 46 32 27 34 25 33 29 42 44 53 39 44 46 42 41 43 45 48 46
64 50 48 44 31 70 67 65 67 68 58 64 63 58 57 40 38 49 44 33 39 38 25 34 24 33 35 31 34 47 30 37 41 47 46 50 55 62 49 47 47 51 56
62 44 46 68 77 38 58 69 74 72 72 72 67 64 65 57 52 61 39 50 29 42 41 38 43 30 34 39 28 39 47 34 40 49 44 52 64 52 61 52 56 53 52
61 53 50 47 40 74 71 80 74 75 74 78 37 73 62 73 25 66 25 22 55 34 36 52 55 42 38 34 55 41 31 37 52 44 57 48 49 66 67 61 57 52 60
65 83 48 73 49 42 37 66 80 40 77 82 68 41 46 41 38 33 31 29 25 32 26 43 51 42 52 35 46 37 48 36 44 53 53 48 53 61 54 58 61 59 62
60 105 95 64 62 47 43 92 67 55 85 71 52 83 68 78 49 34 31 31 32 46 45 36 47 40 41 45 42 54 44 39 48 47 69 54 55 58 61 66 63 61 63
97 103 37 99 97 52 48 51 91 43 46 45 47 56 83 59 77 34 34 34 35 29 46 46 57 42 54 44 44 55 43 48 43 51 68 56 62 58 72 70 66 69 66
120 61 85 66 50 46 43 52 54 49 91 49 46 49 54 54 79 48 30 33 46 33 50 63 50 41 53 47 45 57 55 46 70 56 54 66 60 73 75 80 73 76 72
116 116 99 96 86 73 53 90 88 63 56 72 79 62 80 35 55 55 66 29 40 56 53 65 45 61 49 48 60 51 58 60 67 62 54 62 60 63 68 71 78 78 74
124 114 122 123 118 81 58 50 54 55 89 88 64 88 58 57 55 64 66 72 46 56 68 52 49 48 65 49 48 56 55 59 46 52 72 80 67 66 81 71 76 80 77
140 121 127 127 131 111 104 86 61 73 99 79 48 74 83 62 60 62 80 40 88 63 58 55 50 66 47 76 46 46 59 72 51 54 63 82 79 79 83 84 85 80 79
144 138 131 131 131 131 123 104 119 100 104 108 63 81 58 62 96 57 82 87 59 69 62 57 57 62 50 44 49 49 57 69 54 74 59 88 76 68 89 89 82 73 82
135 142 140 133 136 130 129 117 130 114 113 96 101 82 84 66 78 68 78 68 79 68 63 73 56 50 54 47 49 53 60 80 54 86 90 80 69 92 91 80 77 74 82
116 129 141 145 137 122 135 123 126 126 120 88 59 91 107 110 74 82 96 62 63 79 57 67 57 54 46 91 83 50 77 72 57 82 97 94 80 86 84 83 92 83 75
121 115 128 129 141 141 141 136 131 128 118 124 123 70 109 86 58 69 64 106 86 59 74 53 54 53 89 48 75 55 92 77 59 81 92 91 80 87 90 85 75 85 87
116 117 115 123 126 134 133 137 138 132 134 128 124 115 100 110 76 48 83 93 94 61 85 78 86 80 71 46 89 51 84 54 59 85 100 71 85 91 96 92 88 88 81
125 124 119 114 125 125 133 140 138 138 134 136 139 123 127 116 113 119 100 99 88 49 56 100 63 76 100 71 60 55 79 104 56 94 90 101 75 53 93 93 84 74 97
122 108 113 112 121 116 126 124 134 140 138 133 137 115 131 77 114 57 92 75 70 76 98 115 104 75 50 46 54 77 61 80 58 98 67 77 76 92 98 77 81 89 101
100 111 91 108 105 119 116 114 127 131 131 133 141 134 99 123 46 117 77 55 78 48 75 123 93 50 118 67 97 116 72 100 65 91 95 67 102 100 40 64 83 83 70
137 130 123 125 117 105 120 120 117 121 129 130 132 134 124 133 105 104 108 90 46 99 74 114 123 121 55 116 113 58 105 107 90 71 105 74 95 44 101 99 92 82 90
130 121 125 117 111 127 119 113 117 113 119 128 128 129 133 133 134 100 126 89 80 63 127 116 57 99 114 121 89 74 94 118 113 105 93 92 105 108 80 81 82 96 97
148 99 110 131 117 122 124 131 117 116 110 110 118 128 129 130 129 93 117 126 115 76 63 115 62 118 101 61 106 68 108 75 98 92 74 109 108 66 96 109 113 90 105
156 100 143 119 107 126 131 136 132 118 107 112 112 113 121 130 129 131 130 129 122 122 69 90 136 130 90 129 125 67 86 69 103 121 115 112 96 67 52 118 112 105 98
Wind_Direction
232 229 235 239 239 238 242 246 251 252 256 260 261 263 269 266 269 251 263 293 304 312 287 337 322 335 338 324 349 340 346 5 309 324 326 333 326 335 334 311 329 313 312
231 231 232 237 243 241 241 242 253 255 254 259 261 266 270 274 277 279 280 268 299 280 272 316 328 323 320 314 343 317 346 346 331 315 325 349 327 315 319 320 342 316 330
229 236 233 240 238 244 247 249 250 249 259 260 264 262 271 274 274 276 280 265 264 299 291 298 322 324 326 327 309 303 350 333 340 349 308 348 337 341 319 328 318 319 320
229 231 232 237 237 244 246 247 251 254 256 260 262 264 269 271 274 276 279 284 278 291 297 308 308 293 311 302 317 307 337 314 304 347 332 340 336 313 312 313 316 334 319
230 235 232 235 232 242 244 248 251 253 254 258 261 262 263 254 265 273 277 278 287 292 290 293 291 296 298 305 313 336 323 304 333 341 334 336 340 341 323 315 322 314 315
230 228 235 236 239 239 243 246 248 249 252 254 257 260 263 265 269 270 270 280 283 293 294 302 304 288 302 304 316 321 331 312 304 334 309 334 340 320 332 325 331 316 314
229 229 231 233 234 240 242 243 247 248 251 252 251 255 259 261 262 270 272 277 283 283 292 297 296 305 290 295 294 309 307 320 330 313 333 324 304 332 333 334 308 319 310
228 230 232 236 236 241 237 238 242 245 249 249 251 244 259 262 265 265 271 281 284 292 294 293 295 295 300 288 313 311 326 301 317 326 325 317 303 323 314 328 329 319 328
229 231 229 233 239 235 241 242 241 242 243 246 249 252 249 257 265 267 274 281 287 285 289 296 284 284 284 285 302 319 297 301 308 310 327 324 318 319 305 328 319 317 323
232 234 227 234 233 231 233 236 240 245 252 251 253 251 253 263 259 265 272 278 285 288 289 279 286 282 297 279 296 315 283 315 294 294 325 318 325 309 329 326 324 305 307
233 233 235 231 236 236 238 237 247 248 243 253 250 256 248 255 261 268 269 271 263 287 281 283 275 275 292 279 282 309 306 305 321 289 295 322 314 325 325 327 320 322 303
233 238 239 237 243 245 239 240 245 240 247 247 250 254 256 261 252 258 266 275 283 278 272 283 268 290 285 279 306 301 312 317 318 315 301 312 308 309 313 309 322 318 301
233 237 240 240 240 240 241 244 240 247 248 249 246 250 256 253 260 260 266 271 275 265 282 263 271 271 296 275 277 308 302 313 306 308 316 319 311 303 319 315 314 318 300
228 235 236 239 240 243 246 250 245 250 250 247 253 253 255 251 255 262 268 282 273 271 268 266 267 291 283 298 278 279 309 313 310 297 305 316 316 312 317 316 317 313 303
225 231 235 238 240 241 247 248 251 254 256 253 247 255 246 252 266 255 268 270 262 273 272 274 275 284 284 285 276 276 306 308 291 311 290 313 308 301 315 314 311 311 327
228 229 232 237 237 239 244 249 248 253 255 257 258 258 258 253 258 258 267 264 275 272 274 280 269 268 289 281 274 298 304 308 284 310 312 311 293 313 313 312 299 310 328
228 227 230 232 237 240 239 245 248 250 254 259 254 260 262 263 257 265 270 265 264 277 260 282 262 266 274 297 299 291 304 306 281 309 310 310 303 306 307 301 320 323 306
228 229 225 226 234 237 238 240 245 249 253 254 256 258 261 264 255 264 265 273 276 266 280 259 268 271 285 284 296 298 302 304 280 299 306 309 295 308 309 309 314 321 321
229 229 230 229 230 235 241 241 242 246 248 253 256 258 262 262 265 250 270 274 274 270 278 282 285 288 287 267 296 277 301 287 291 301 305 300 297 304 308 315 314 319 294
234 233 230 232 228 229 235 242 244 247 248 250 254 256 257 261 263 265 266 271 274 254 272 282 276 282 290 281 292 294 302 302 282 299 301 302 297 305 309 313 316 311 317
235 233 235 236 234 237 232 235 240 245 247 250 251 253 255 253 262 254 268 268 269 276 279 280 282 286 269 279 283 296 296 296 275 300 283 290 305 304 311 291 301 313 315
234 236 231 239 238 236 239 240 235 240 243 246 249 251 250 258 239 264 261 264 274 254 269 275 280 263 283 288 292 292 285 299 277 300 302 303 302 306 300 311 297 295 310
242 240 234 242 243 238 236 239 240 241 240 243 248 251 252 255 257 265 267 271 243 275 265 276 278 281 265 288 290 280 293 294 291 287 300 300 300 300 305 309 298 307 313
237 239 240 237 240 243 239 238 239 240 240 240 244 249 253 255 258 259 266 264 265 262 276 280 260 280 284 285 284 289 288 295 294 297 292 298 300 301 303 295 302 308 310
234 228 238 241 239 243 236 241 243 238 242 244 246 244 248 254 255 253 261 263 269 271 258 277 261 283 284 282 286 278 289 287 297 299 288 299 300 307 303 304 304 301 306
230 231 235 232 224 240 243 243 244 233 238 241 244 248 249 246 250 257 259 261 265 269 261 279 277 280 274 287 290 276 293 282 296 295 293 294 298 308 294 300 301 304 307